Time,TemperatureF,DewpointF,PressureIn,WindDirection,WindDirectionDegrees,WindSpeedMPH,WindSpeedGustMPH,Humidity,HourlyPrecipIn,Conditions,Clouds,dailyrainin,SoftwareType,DateUTC
2013-01-14 00:02:00,45.7,14.5,31.01,NE,54,3.6,5.8,28,0.00,,---,0.00,VWS V14.00,2013-01-14 08:02:00,
2013-01-14 00:07:00,45.5,14.3,31.01,ENE,61,7.6,9.2,28,0.00,,---,0.00,VWS V14.00,2013-01-14 08:07:00,
2013-01-14 00:12:00,45.9,14.6,31.01,NE,52,3.1,11.0,28,0.00,,---,0.00,VWS V14.00,2013-01-14 08:12:00,
2013-01-14 00:17:00,45.9,14.6,31.01,NE,56,2.7,11.0,28,0.00,,---,0.00,VWS V14.00,2013-01-14 08:17:00,
2013-01-14 00:22:00,46.0,14.8,31.01,East,95,6.3,8.3,28,0.00,,---,0.00,VWS V14.00,2013-01-14 08:22:00,
2013-01-14 00:27:00,46.0,14.8,31.01,ENE,68,10.5,10.5,28,0.00,,---,0.00,VWS V14.00,2013-01-14 08:27:00,
2013-01-14 00:32:00,46.2,14.9,31.01,ENE,77,7.6,11.0,28,0.00,,---,0.00,VWS V14.00,2013-01-14 08:32:00,
2013-01-14 00:37:00,46.0,14.8,31.01,ESE,105,3.6,11.0,28,0.00,,---,0.00,VWS V14.00,2013-01-14 08:37:00,
2013-01-14 00:42:00,46.2,14.1,31.01,ESE,123,8.7,17.0,27,0.00,,---,0.00,VWS V14.00,2013-01-14 08:42:00,
2013-01-14 00:48:00,46.2,14.1,31.01,East,85,8.3,17.0,27,0.00,,---,0.00,VWS V14.00,2013-01-14 08:48:00,
2013-01-14 00:53:00,46.4,14.2,31.01,NE,54,11.0,17.0,27,0.00,,---,0.00,VWS V14.00,2013-01-14 08:53:00,
2013-01-14 00:58:00,46.2,14.1,31.01,NE,44,6.3,17.0,27,0.00,,---,0.00,VWS V14.00,2013-01-14 08:58:00,
2013-01-14 01:03:00,46.2,12.4,31.01,East,97,8.1,15.4,25,0.00,,---,0.00,VWS V14.00,2013-01-14 09:03:00,
2013-01-14 01:08:00,46.0,12.2,31.01,SE,144,7.2,15.9,25,0.00,,---,0.00,VWS V14.00,2013-01-14 09:08:00,
2013-01-14 01:13:00,46.0,12.2,31.01,ENE,69,11.4,16.8,25,0.00,,---,0.00,VWS V14.00,2013-01-14 09:13:00,
2013-01-14 01:18:00,46.2,12.4,31.01,SE,127,9.6,16.8,25,0.00,,---,0.00,VWS V14.00,2013-01-14 09:18:00,
2013-01-14 01:23:00,46.0,12.2,31.01,NE,38,5.4,9.2,25,0.00,,---,0.00,VWS V14.00,2013-01-14 09:23:00,
2013-01-14 01:28:00,46.0,12.2,31.01,East,82,8.1,13.2,25,0.00,,---,0.00,VWS V14.00,2013-01-14 09:28:00,
2013-01-14 01:33:00,46.0,12.2,31.01,ENE,73,8.7,15.0,25,0.00,,---,0.00,VWS V14.00,2013-01-14 09:33:00,
2013-01-14 01:38:00,46.0,12.2,31.01,ENE,60,12.8,15.0,25,0.00,,---,0.00,VWS V14.00,2013-01-14 09:38:00,
2013-01-14 01:43:00,45.9,12.0,31.01,ENE,71,7.2,11.0,25,0.00,,---,0.00,VWS V14.00,2013-01-14 09:43:00,
2013-01-14 01:48:00,45.9,12.0,31.01,ESE,102,8.1,12.3,25,0.00,,---,0.00,VWS V14.00,2013-01-14 09:48:00,
2013-01-14 01:53:00,45.9,12.0,31.01,ENE,60,8.1,14.5,25,0.00,,---,0.00,VWS V14.00,2013-01-14 09:53:00,
2013-01-14 01:58:00,45.5,11.7,31.01,ENE,68,6.3,14.5,25,0.00,,---,0.00,VWS V14.00,2013-01-14 09:58:00,
2013-01-14 02:03:00,45.5,11.7,31.01,ESE,104,6.3,15.0,25,0.00,,---,0.00,VWS V14.00,2013-01-14 10:03:00,
2013-01-14 02:08:00,45.5,11.7,31.01,ENE,76,8.7,15.0,25,0.00,,---,0.00,VWS V14.00,2013-01-14 10:08:00,
2013-01-14 02:13:00,45.5,11.7,31.01,East,89,10.1,15.0,25,0.00,,---,0.00,VWS V14.00,2013-01-14 10:13:00,
2013-01-14 02:19:00,45.5,11.7,31.01,SE,141,15.4,15.4,25,0.00,,---,0.00,VWS V14.00,2013-01-14 10:19:00,
2013-01-14 02:24:00,45.5,11.7,31.01,East,86,6.7,10.1,25,0.00,,---,0.00,VWS V14.00,2013-01-14 10:24:00,
2013-01-14 02:29:00,45.5,11.7,31.01,ENE,77,8.7,15.0,25,0.00,,---,0.00,VWS V14.00,2013-01-14 10:29:00,
2013-01-14 02:34:00,45.5,11.7,31.01,NE,54,7.6,15.0,25,0.00,,---,0.00,VWS V14.00,2013-01-14 10:34:00,
2013-01-14 02:39:00,45.7,11.9,31.01,ENE,75,10.5,15.0,25,0.00,,---,0.00,VWS V14.00,2013-01-14 10:39:00,
2013-01-14 02:44:00,45.7,11.9,31.01,ENE,78,7.2,17.0,25,0.00,,---,0.00,VWS V14.00,2013-01-14 10:44:00,
2013-01-14 02:49:00,45.5,11.7,31.01,East,95,9.6,17.0,25,0.00,,---,0.00,VWS V14.00,2013-01-14 10:49:00,
2013-01-14 02:54:00,45.3,11.6,31.01,ENE,73,7.2,17.0,25,0.00,,---,0.00,VWS V14.00,2013-01-14 10:54:00,
2013-01-14 02:59:00,45.3,8.7,31.01,NE,56,11.9,17.0,22,0.00,,---,0.00,VWS V14.00,2013-01-14 10:59:00,
2013-01-14 03:04:00,45.5,11.7,31.01,ENE,62,11.0,17.4,25,0.00,,---,0.00,VWS V14.00,2013-01-14 11:04:00,
2013-01-14 03:09:00,45.3,8.7,31.01,East,98,5.4,17.4,22,0.00,,---,0.00,VWS V14.00,2013-01-14 11:09:00,
2013-01-14 03:14:00,45.3,8.7,31.01,NE,51,8.3,17.4,22,0.00,,---,0.00,VWS V14.00,2013-01-14 11:14:00,
2013-01-14 03:19:00,45.1,8.6,31.01,East,91,5.8,17.4,22,0.00,,---,0.00,VWS V14.00,2013-01-14 11:19:00,
2013-01-14 03:24:00,45.1,8.6,31.01,ESE,107,10.5,16.3,22,0.00,,---,0.00,VWS V14.00,2013-01-14 11:24:00,
2013-01-14 03:29:00,45.1,8.6,31.01,North,353,10.1,16.3,22,0.00,,---,0.00,VWS V14.00,2013-01-14 11:29:00,
2013-01-14 03:34:00,45.0,8.4,31.01,ENE,63,11.0,16.3,22,0.00,,---,0.00,VWS V14.00,2013-01-14 11:34:00,
2013-01-14 03:39:00,45.0,8.4,31.01,NE,55,10.5,16.3,22,0.00,,---,0.00,VWS V14.00,2013-01-14 11:39:00,
2013-01-14 03:44:00,44.8,8.3,31.01,ENE,72,14.5,15.4,22,0.00,,---,0.00,VWS V14.00,2013-01-14 11:44:00,
2013-01-14 03:49:00,44.8,8.3,31.01,ESE,115,4.0,15.4,22,0.00,,---,0.00,VWS V14.00,2013-01-14 11:49:00,
2013-01-14 03:54:00,44.8,8.3,31.01,ENE,71,8.7,15.4,22,0.00,,---,0.00,VWS V14.00,2013-01-14 11:54:00,
2013-01-14 03:59:00,44.8,8.3,31.01,East,97,8.1,15.4,22,0.00,,---,0.00,VWS V14.00,2013-01-14 11:59:00,
2013-01-14 04:04:00,44.8,8.3,31.01,ENE,72,10.5,14.1,22,0.00,,---,0.00,VWS V14.00,2013-01-14 12:04:00,
2013-01-14 04:09:00,44.8,8.3,31.01,East,83,5.4,14.1,22,0.00,,---,0.00,VWS V14.00,2013-01-14 12:09:00,
2013-01-14 04:14:00,44.8,8.3,31.01,East,85,7.6,14.1,22,0.00,,---,0.00,VWS V14.00,2013-01-14 12:14:00,
2013-01-14 04:19:00,44.6,8.1,31.01,East,84,4.0,14.1,22,0.00,,---,0.00,VWS V14.00,2013-01-14 12:19:00,
2013-01-14 04:24:00,44.6,8.1,31.01,ENE,77,5.8,9.6,22,0.00,,---,0.00,VWS V14.00,2013-01-14 12:24:00,
2013-01-14 04:29:00,44.6,8.1,31.01,SSE,149,2.7,9.6,22,0.00,,---,0.00,VWS V14.00,2013-01-14 12:29:00,
2013-01-14 04:34:00,44.6,8.1,31.01,ESE,110,8.1,10.1,22,0.00,,---,0.00,VWS V14.00,2013-01-14 12:34:00,
2013-01-14 04:39:00,44.2,8.8,31.01,ESE,120,5.4,11.0,23,0.00,,---,0.00,VWS V14.00,2013-01-14 12:39:00,
2013-01-14 04:44:00,44.1,8.6,31.01,NNE,26,2.2,8.7,23,0.00,,---,0.00,VWS V14.00,2013-01-14 12:44:00,
2013-01-14 04:50:00,44.1,8.6,31.01,NE,56,9.6,9.6,23,0.00,,---,0.00,VWS V14.00,2013-01-14 12:50:00,
2013-01-14 04:55:00,43.9,8.5,31.01,ENE,58,8.1,11.0,23,0.00,,---,0.00,VWS V14.00,2013-01-14 12:55:00,
2013-01-14 05:00:00,44.1,8.6,31.01,ENE,76,8.7,11.9,23,0.00,,---,0.00,VWS V14.00,2013-01-14 13:00:00,
2013-01-14 05:05:00,43.9,8.5,31.01,ENE,76,9.6,11.0,23,0.00,,---,0.00,VWS V14.00,2013-01-14 13:05:00,
2013-01-14 05:10:00,43.7,8.3,31.01,East,79,5.4,11.0,23,0.00,,---,0.00,VWS V14.00,2013-01-14 13:10:00,
2013-01-14 05:15:00,43.7,8.3,31.01,ENE,58,4.9,11.0,23,0.00,,---,0.00,VWS V14.00,2013-01-14 13:15:00,
2013-01-14 05:20:00,43.5,8.2,31.01,East,83,8.3,13.2,23,0.00,,---,0.00,VWS V14.00,2013-01-14 13:20:00,
2013-01-14 05:25:00,43.5,8.2,31.01,SSE,164,8.1,11.0,23,0.00,,---,0.00,VWS V14.00,2013-01-14 13:25:00,
2013-01-14 05:30:00,43.5,8.2,31.01,NE,53,6.3,11.0,23,0.00,,---,0.00,VWS V14.00,2013-01-14 13:30:00,
2013-01-14 05:35:00,43.5,8.2,31.01,SE,135,6.3,11.0,23,0.00,,---,0.00,VWS V14.00,2013-01-14 13:35:00,
2013-01-14 05:40:00,43.5,8.2,31.01,ENE,65,8.7,15.4,23,0.00,,---,0.00,VWS V14.00,2013-01-14 13:40:00,
2013-01-14 05:45:00,43.5,8.2,31.01,SSW,197,4.9,15.4,23,0.00,,---,0.00,VWS V14.00,2013-01-14 13:45:00,
2013-01-14 05:50:00,43.5,8.2,31.01,ENE,74,10.1,15.4,23,0.00,,---,0.00,VWS V14.00,2013-01-14 13:50:00,
2013-01-14 05:55:00,43.5,5.1,31.01,ESE,106,8.1,15.4,20,0.00,,---,0.00,VWS V14.00,2013-01-14 13:55:00,
2013-01-14 06:00:00,43.5,5.1,31.01,SSW,200,8.7,11.0,20,0.00,,---,0.00,VWS V14.00,2013-01-14 14:00:00,
2013-01-14 06:05:00,43.7,5.3,31.01,East,86,14.1,14.1,20,0.00,,---,0.00,VWS V14.00,2013-01-14 14:05:00,
2013-01-14 06:10:00,43.7,5.3,31.01,ENE,76,11.0,18.3,20,0.00,,---,0.00,VWS V14.00,2013-01-14 14:10:00,
2013-01-14 06:15:00,43.7,5.3,31.01,ENE,63,4.0,19.2,20,0.00,,---,0.00,VWS V14.00,2013-01-14 14:15:00,
2013-01-14 06:20:00,43.7,5.3,31.01,ENE,75,7.6,12.8,20,0.00,,---,0.00,VWS V14.00,2013-01-14 14:20:00,
2013-01-14 06:25:00,43.7,5.3,31.01,ESE,120,8.7,12.8,20,0.00,,---,0.00,VWS V14.00,2013-01-14 14:25:00,
2013-01-14 06:30:00,43.7,5.3,31.01,East,91,13.2,15.0,20,0.00,,---,0.00,VWS V14.00,2013-01-14 14:30:00,
2013-01-14 06:35:00,43.7,5.3,31.01,ENE,63,5.8,15.0,20,0.00,,---,0.00,VWS V14.00,2013-01-14 14:35:00,
2013-01-14 06:40:00,43.7,5.3,31.01,ENE,61,8.1,8.1,20,0.00,,---,0.00,VWS V14.00,2013-01-14 14:40:00,
2013-01-14 06:45:00,43.7,5.3,31.01,ENE,68,15.4,15.4,20,0.00,,---,0.00,VWS V14.00,2013-01-14 14:45:00,
2013-01-14 06:50:00,43.7,5.3,31.01,NE,44,10.5,15.4,20,0.00,,---,0.00,VWS V14.00,2013-01-14 14:50:00,
2013-01-14 06:55:00,43.7,5.3,31.01,East,99,7.6,15.4,20,0.00,,---,0.00,VWS V14.00,2013-01-14 14:55:00,
2013-01-14 07:00:00,44.1,5.6,31.01,East,82,10.5,13.2,20,0.00,,---,0.00,VWS V14.00,2013-01-14 15:00:00,
2013-01-14 07:05:00,44.1,5.6,31.01,NE,54,11.0,13.2,20,0.00,,---,0.00,VWS V14.00,2013-01-14 15:05:00,
2013-01-14 07:10:00,43.9,5.4,31.01,ESE,109,8.3,15.0,20,0.00,,---,0.00,VWS V14.00,2013-01-14 15:10:00,
2013-01-14 07:15:00,43.9,5.4,31.01,East,100,13.2,15.0,20,0.00,,---,0.00,VWS V14.00,2013-01-14 15:15:00,
2013-01-14 07:20:00,43.9,5.4,31.01,East,85,13.2,13.2,20,0.00,,---,0.00,VWS V14.00,2013-01-14 15:20:00,
2013-01-14 07:25:00,43.9,5.4,31.01,SSE,153,5.4,16.8,20,0.00,,---,0.00,VWS V14.00,2013-01-14 15:25:00,
2013-01-14 07:30:00,43.7,5.3,31.01,East,85,8.3,18.8,20,0.00,,---,0.00,VWS V14.00,2013-01-14 15:30:00,
2013-01-14 07:35:00,43.9,5.4,31.01,NE,55,12.3,18.8,20,0.00,,---,0.00,VWS V14.00,2013-01-14 15:35:00,
2013-01-14 07:40:00,44.1,5.6,31.01,East,100,13.2,13.2,20,0.00,,---,0.00,VWS V14.00,2013-01-14 15:40:00,
2013-01-14 07:45:00,44.1,5.6,31.01,ENE,62,7.6,16.8,20,0.00,,---,0.00,VWS V14.00,2013-01-14 15:45:00,
2013-01-14 07:50:00,44.1,5.6,31.01,ENE,64,11.4,16.8,20,0.00,,---,0.00,VWS V14.00,2013-01-14 15:50:00,
2013-01-14 07:55:00,44.2,5.7,31.01,East,93,5.8,16.8,20,0.00,,---,0.00,VWS V14.00,2013-01-14 15:55:00,
2013-01-14 08:00:00,44.4,5.9,31.01,ESE,104,5.8,8.7,20,0.00,,---,0.00,VWS V14.00,2013-01-14 16:00:00,
2013-01-14 08:05:00,44.6,6.0,31.01,East,98,10.1,17.9,20,0.00,,---,0.00,VWS V14.00,2013-01-14 16:05:00,
2013-01-14 08:11:00,44.8,6.2,31.01,NNE,33,8.1,17.9,20,0.00,,---,0.00,VWS V14.00,2013-01-14 16:11:00,
2013-01-14 08:16:00,45.0,6.3,31.01,ENE,69,6.3,17.9,20,0.00,,---,0.00,VWS V14.00,2013-01-14 16:16:00,
2013-01-14 08:21:00,45.1,6.5,31.01,NE,50,2.2,5.8,20,0.00,,---,0.00,VWS V14.00,2013-01-14 16:21:00,
2013-01-14 08:26:00,45.5,6.8,31.01,East,81,8.3,14.5,20,0.00,,---,0.00,VWS V14.00,2013-01-14 16:26:00,
2013-01-14 08:31:00,45.7,6.9,31.01,East,101,8.7,17.4,20,0.00,,---,0.00,VWS V14.00,2013-01-14 16:31:00,
2013-01-14 08:36:00,45.9,7.1,31.01,East,95,8.7,17.4,20,0.00,,---,0.00,VWS V14.00,2013-01-14 16:36:00,
2013-01-14 08:41:00,46.0,7.2,31.01,ENE,74,18.8,18.8,20,0.00,,---,0.00,VWS V14.00,2013-01-14 16:41:00,
2013-01-14 08:46:00,46.0,7.2,31.01,ENE,57,5.8,18.8,20,0.00,,---,0.00,VWS V14.00,2013-01-14 16:46:00,
2013-01-14 08:51:00,46.2,7.4,31.01,ESE,109,8.3,18.8,20,0.00,,---,0.00,VWS V14.00,2013-01-14 16:51:00,
2013-01-14 08:56:00,46.2,7.4,31.01,NNE,28,11.0,18.8,20,0.00,,---,0.00,VWS V14.00,2013-01-14 16:56:00,
2013-01-14 09:01:00,46.2,7.4,31.01,ENE,74,8.7,12.8,20,0.00,,---,0.00,VWS V14.00,2013-01-14 17:01:00,
2013-01-14 09:06:00,46.4,6.4,31.01,East,88,15.0,17.0,19,0.00,,---,0.00,VWS V14.00,2013-01-14 17:06:00,
2013-01-14 09:11:00,46.8,6.7,31.01,ENE,70,8.1,17.0,19,0.00,,---,0.00,VWS V14.00,2013-01-14 17:11:00,
2013-01-14 09:16:00,46.9,6.8,31.01,NE,42,5.4,17.0,19,0.00,,---,0.00,VWS V14.00,2013-01-14 17:16:00,
2013-01-14 09:21:00,47.1,7.0,31.01,ENE,68,6.3,18.3,19,0.00,,---,0.00,VWS V14.00,2013-01-14 17:21:00,
2013-01-14 09:26:00,47.5,7.3,31.01,ENE,68,8.1,18.3,19,0.00,,---,0.00,VWS V14.00,2013-01-14 17:26:00,
2013-01-14 09:31:00,47.7,7.4,31.01,ESE,117,10.5,18.3,19,0.00,,---,0.00,VWS V14.00,2013-01-14 17:31:00,
2013-01-14 09:36:00,47.8,7.6,31.01,ENE,73,8.1,18.3,19,0.00,,---,0.00,VWS V14.00,2013-01-14 17:36:00,
2013-01-14 09:41:00,48.2,7.9,31.01,East,86,12.3,12.3,19,0.00,,---,0.00,VWS V14.00,2013-01-14 17:41:00,
2013-01-14 09:46:00,48.4,8.0,31.01,ESE,109,7.6,12.3,19,0.00,,---,0.00,VWS V14.00,2013-01-14 17:46:00,
2013-01-14 09:51:00,48.6,8.2,31.01,NE,46,10.1,14.1,19,0.00,,---,0.00,VWS V14.00,2013-01-14 17:51:00,
2013-01-14 09:56:00,48.7,8.3,31.01,NNE,20,4.0,15.4,19,0.00,,---,0.00,VWS V14.00,2013-01-14 17:56:00,
2013-01-14 10:01:00,48.9,8.5,31.01,ENE,67,8.1,11.9,19,0.00,,---,0.00,VWS V14.00,2013-01-14 18:01:00,
2013-01-14 10:06:00,49.1,8.6,31.01,North,3,13.2,16.8,19,0.00,,---,0.00,VWS V14.00,2013-01-14 18:06:00,
2013-01-14 10:11:00,49.1,8.6,31.01,NE,50,6.3,16.8,19,0.00,,---,0.00,VWS V14.00,2013-01-14 18:11:00,
2013-01-14 10:16:00,49.5,8.9,31.01,ESE,114,7.6,18.8,19,0.00,,---,0.00,VWS V14.00,2013-01-14 18:16:00,
2013-01-14 10:21:00,49.6,9.1,31.01,NE,55,5.4,17.9,19,0.00,,---,0.00,VWS V14.00,2013-01-14 18:21:00,
2013-01-14 10:26:00,49.8,9.2,31.01,East,88,10.1,17.9,19,0.00,,---,0.00,VWS V14.00,2013-01-14 18:26:00,
2013-01-14 10:31:00,49.8,9.2,31.01,SE,136,8.3,17.9,19,0.00,,---,0.00,VWS V14.00,2013-01-14 18:31:00,
2013-01-14 10:36:00,50.2,9.5,31.01,ESE,102,8.3,17.9,19,0.00,,---,0.00,VWS V14.00,2013-01-14 18:36:00,
2013-01-14 10:41:00,50.7,10.0,31.01,ESE,118,11.0,13.2,19,0.00,,---,0.00,VWS V14.00,2013-01-14 18:41:00,
2013-01-14 10:46:00,50.7,10.0,31.01,NE,35,5.4,14.5,19,0.00,,---,0.00,VWS V14.00,2013-01-14 18:46:00,
2013-01-14 10:51:00,50.9,10.1,31.01,NE,43,12.8,15.4,19,0.00,,---,0.00,VWS V14.00,2013-01-14 18:51:00,
2013-01-14 10:56:00,50.9,10.1,31.01,East,96,13.2,15.4,19,0.00,,---,0.00,VWS V14.00,2013-01-14 18:56:00,
2013-01-14 11:01:00,51.1,10.3,31.01,East,87,6.3,11.4,19,0.00,,---,0.00,VWS V14.00,2013-01-14 19:01:00,
2013-01-14 11:06:00,51.8,9.7,31.01,East,90,6.3,11.9,18,0.00,,---,0.00,VWS V14.00,2013-01-14 19:06:00,
2013-01-14 11:11:00,52.0,9.8,31.01,ESE,117,4.0,12.3,18,0.00,,---,0.00,VWS V14.00,2013-01-14 19:11:00,
2013-01-14 11:16:00,52.3,10.1,31.01,ESE,122,10.5,12.8,18,0.00,,---,0.00,VWS V14.00,2013-01-14 19:16:00,
2013-01-14 11:21:00,52.5,10.2,31.01,NE,51,7.6,11.0,18,0.00,,---,0.00,VWS V14.00,2013-01-14 19:21:00,
2013-01-14 11:26:00,52.7,10.4,31.01,East,93,5.8,13.2,18,0.00,,---,0.00,VWS V14.00,2013-01-14 19:26:00,
2013-01-14 11:31:00,52.9,10.6,31.01,East,96,9.2,13.2,18,0.00,,---,0.00,VWS V14.00,2013-01-14 19:31:00,
2013-01-14 11:36:00,53.1,10.7,31.01,ENE,78,8.7,13.2,18,0.00,,---,0.00,VWS V14.00,2013-01-14 19:36:00,
2013-01-14 11:41:00,53.4,11.0,31.01,ENE,74,6.3,9.2,18,0.00,,---,0.00,VWS V14.00,2013-01-14 19:41:00,
2013-01-14 11:46:00,53.4,11.0,31.01,SSE,163,5.4,10.5,18,0.00,,---,0.00,VWS V14.00,2013-01-14 19:46:00,
2013-01-14 11:51:00,53.6,11.1,31.01,NE,39,4.9,10.5,18,0.00,,---,0.00,VWS V14.00,2013-01-14 19:51:00,
2013-01-14 11:57:00,54.3,11.7,31.01,NE,36,3.1,10.5,18,0.00,,---,0.00,VWS V14.00,2013-01-14 19:57:00,
2013-01-14 12:02:00,54.7,12.0,31.01,North,8,6.3,6.3,18,0.00,,---,0.00,VWS V14.00,2013-01-14 20:02:00,
2013-01-14 12:07:00,55.2,12.5,31.01,ENE,64,4.0,6.3,18,0.00,,---,0.00,VWS V14.00,2013-01-14 20:07:00,
2013-01-14 12:12:00,55.6,11.5,31.01,NE,43,3.1,6.3,17,0.00,,---,0.00,VWS V14.00,2013-01-14 20:12:00,
2013-01-14 12:17:00,55.6,11.5,31.01,NNW,332,6.3,6.7,17,0.00,,---,0.00,VWS V14.00,2013-01-14 20:17:00,
2013-01-14 12:22:00,55.9,11.8,31.01,North,353,4.9,8.1,17,0.00,,---,0.00,VWS V14.00,2013-01-14 20:22:00,
2013-01-14 12:27:00,56.1,11.9,31.01,East,81,5.8,10.1,17,0.00,,---,0.00,VWS V14.00,2013-01-14 20:27:00,
2013-01-14 12:32:00,55.9,11.8,31.01,North,8,6.3,10.1,17,0.00,,---,0.00,VWS V14.00,2013-01-14 20:32:00,
2013-01-14 12:37:00,55.8,11.6,31.01,NNE,17,3.6,10.1,17,0.00,,---,0.00,VWS V14.00,2013-01-14 20:37:00,
2013-01-14 12:42:00,56.1,11.9,31.01,ENE,71,0.0,5.4,17,0.00,,---,0.00,VWS V14.00,2013-01-14 20:42:00,
2013-01-14 12:47:00,56.3,12.1,31.01,NNE,25,0.0,5.4,17,0.00,,---,0.00,VWS V14.00,2013-01-14 20:47:00,
2013-01-14 12:52:00,56.3,12.1,31.01,North,353,4.0,8.3,17,0.00,,---,0.00,VWS V14.00,2013-01-14 20:52:00,
2013-01-14 12:57:00,56.5,12.2,31.01,NNE,22,0.0,8.3,17,0.00,,---,0.00,VWS V14.00,2013-01-14 20:57:00,
2013-01-14 13:02:00,56.3,12.1,31.01,North,10,0.0,5.8,17,0.00,,---,0.00,VWS V14.00,2013-01-14 21:02:00,
2013-01-14 13:07:00,56.3,12.1,31.01,NE,41,2.7,6.7,17,0.00,,---,0.00,VWS V14.00,2013-01-14 21:07:00,
2013-01-14 13:12:00,56.7,12.4,31.01,North,353,0.0,6.7,17,0.00,,---,0.00,VWS V14.00,2013-01-14 21:12:00,
2013-01-14 13:17:00,56.5,12.2,31.01,WNW,289,0.0,6.7,17,0.00,,---,0.00,VWS V14.00,2013-01-14 21:17:00,
2013-01-14 13:22:00,56.7,12.4,31.01,NNW,332,0.0,4.0,17,0.00,,---,0.00,VWS V14.00,2013-01-14 21:22:00,
2013-01-14 13:27:00,56.8,12.5,31.01,West,267,3.1,4.0,17,0.00,,---,0.00,VWS V14.00,2013-01-14 21:27:00,
2013-01-14 13:32:00,57.0,12.7,31.01,West,262,2.2,4.0,17,0.00,,---,0.00,VWS V14.00,2013-01-14 21:32:00,
2013-01-14 13:37:00,57.2,12.8,31.01,SW,234,3.1,4.0,17,0.00,,---,0.00,VWS V14.00,2013-01-14 21:37:00,
2013-01-14 13:42:00,57.2,12.8,31.01,West,263,0.0,3.1,17,0.00,,---,0.00,VWS V14.00,2013-01-14 21:42:00,
2013-01-14 13:47:00,56.7,12.4,31.01,ENE,67,0.0,3.1,17,0.00,,---,0.00,VWS V14.00,2013-01-14 21:47:00,
2013-01-14 13:52:00,56.7,12.4,31.01,North,353,3.6,3.6,17,0.00,,---,0.00,VWS V14.00,2013-01-14 21:52:00,
2013-01-14 13:57:00,56.7,12.4,31.01,ENE,60,2.7,4.0,17,0.00,,---,0.00,VWS V14.00,2013-01-14 21:57:00,
2013-01-14 14:02:00,56.7,12.4,31.01,South,174,0.0,2.7,17,0.00,,---,0.00,VWS V14.00,2013-01-14 22:02:00,
2013-01-14 14:07:00,56.5,12.2,31.01,NNE,31,2.7,4.0,17,0.00,,---,0.00,VWS V14.00,2013-01-14 22:07:00,
2013-01-14 14:12:00,56.5,12.2,31.01,North,357,2.7,4.0,17,0.00,,---,0.00,VWS V14.00,2013-01-14 22:12:00,
2013-01-14 14:17:00,56.7,12.4,31.01,North,5,0.0,4.0,17,0.00,,---,0.00,VWS V14.00,2013-01-14 22:17:00,
2013-01-14 14:22:00,56.7,12.4,31.01,West,266,0.0,3.6,17,0.00,,---,0.00,VWS V14.00,2013-01-14 22:22:00,
2013-01-14 14:27:00,56.5,12.2,31.01,WNW,286,0.0,3.6,17,0.00,,---,0.00,VWS V14.00,2013-01-14 22:27:00,
2013-01-14 14:32:00,56.3,12.1,31.01,South,179,0.0,3.6,17,0.00,,---,0.00,VWS V14.00,2013-01-14 22:32:00,
2013-01-14 14:37:00,56.3,12.1,31.01,SE,130,3.6,8.3,17,0.00,,---,0.00,VWS V14.00,2013-01-14 22:37:00,
2013-01-14 14:42:00,56.3,12.1,31.01,East,101,0.0,4.9,17,0.00,,---,0.00,VWS V14.00,2013-01-14 22:42:00,
2013-01-14 14:47:00,56.1,11.9,31.01,NE,54,3.6,5.8,17,0.00,,---,0.00,VWS V14.00,2013-01-14 22:47:00,
2013-01-14 14:52:00,56.1,11.9,31.01,NNW,344,4.0,8.7,17,0.00,,---,0.00,VWS V14.00,2013-01-14 22:52:00,
2013-01-14 14:57:00,55.9,11.8,31.01,SE,126,0.0,8.7,17,0.00,,---,0.00,VWS V14.00,2013-01-14 22:57:00,
2013-01-14 15:02:00,55.8,11.6,31.01,ENE,58,2.7,4.0,17,0.00,,---,0.00,VWS V14.00,2013-01-14 23:02:00,
2013-01-14 15:07:00,55.8,11.6,31.01,South,189,0.0,4.0,17,0.00,,---,0.00,VWS V14.00,2013-01-14 23:07:00,
2013-01-14 15:12:00,55.8,11.6,31.01,SSE,151,0.0,4.0,17,0.00,,---,0.00,VWS V14.00,2013-01-14 23:12:00,
2013-01-14 15:17:00,55.4,11.3,31.01,East,79,0.0,4.9,17,0.00,,---,0.00,VWS V14.00,2013-01-14 23:17:00,
2013-01-14 15:22:00,55.4,11.3,31.01,East,99,0.0,5.4,17,0.00,,---,0.00,VWS V14.00,2013-01-14 23:22:00,
2013-01-14 15:27:00,55.2,12.5,31.01,ENE,63,0.0,5.4,18,0.00,,---,0.00,VWS V14.00,2013-01-14 23:27:00,
2013-01-14 15:33:00,55.0,12.3,31.01,ESE,118,3.1,5.8,18,0.00,,---,0.00,VWS V14.00,2013-01-14 23:33:00,
2013-01-14 15:38:00,54.9,12.2,31.01,SE,124,3.6,5.8,18,0.00,,---,0.00,VWS V14.00,2013-01-14 23:38:00,
2013-01-14 15:43:00,54.7,12.0,31.01,ESE,109,3.6,5.8,18,0.00,,---,0.00,VWS V14.00,2013-01-14 23:43:00,
2013-01-14 15:48:00,54.5,11.9,31.01,ESE,120,0.0,5.8,18,0.00,,---,0.00,VWS V14.00,2013-01-14 23:48:00,
2013-01-14 15:53:00,54.3,11.7,31.01,NE,50,3.1,5.8,18,0.00,,---,0.00,VWS V14.00,2013-01-14 23:53:00,
2013-01-14 15:58:00,54.3,11.7,31.01,North,5,3.1,5.8,18,0.00,,---,0.00,VWS V14.00,2013-01-14 23:58:00,
2013-01-14 16:03:00,54.1,11.6,31.01,East,95,2.2,5.4,18,0.00,,---,0.00,VWS V14.00,2013-01-15 00:03:00,
2013-01-14 16:08:00,54.0,11.4,31.01,ENE,65,5.8,6.3,18,0.00,,---,0.00,VWS V14.00,2013-01-15 00:08:00,
2013-01-14 16:13:00,54.0,11.4,31.01,South,178,3.1,6.3,18,0.00,,---,0.00,VWS V14.00,2013-01-15 00:13:00,
2013-01-14 16:18:00,53.8,11.3,31.01,East,98,3.6,6.3,18,0.00,,---,0.00,VWS V14.00,2013-01-15 00:18:00,
2013-01-14 16:23:00,53.6,11.1,31.01,SE,125,0.0,5.4,18,0.00,,---,0.00,VWS V14.00,2013-01-15 00:23:00,
2013-01-14 16:28:00,53.2,10.9,31.01,East,95,0.0,5.4,18,0.00,,---,0.00,VWS V14.00,2013-01-15 00:28:00,
2013-01-14 16:33:00,53.1,10.7,31.01,East,100,0.0,5.4,18,0.00,,---,0.00,VWS V14.00,2013-01-15 00:33:00,
2013-01-14 16:38:00,53.1,10.7,31.01,ENE,78,0.0,5.4,18,0.00,,---,0.00,VWS V14.00,2013-01-15 00:38:00,
2013-01-14 16:43:00,52.9,10.6,31.01,NE,37,3.6,4.0,18,0.00,,---,0.00,VWS V14.00,2013-01-15 00:43:00,
2013-01-14 16:48:00,52.7,10.4,31.01,ESE,110,0.0,4.0,18,0.00,,---,0.00,VWS V14.00,2013-01-15 00:48:00,
2013-01-14 16:53:00,52.5,10.2,31.01,ENE,73,0.0,5.4,18,0.00,,---,0.00,VWS V14.00,2013-01-15 00:53:00,
2013-01-14 16:58:00,52.3,10.1,31.01,North,5,0.0,5.4,18,0.00,,---,0.00,VWS V14.00,2013-01-15 00:58:00,
2013-01-14 17:03:00,52.2,10.0,31.01,NNE,28,0.0,0.0,18,0.00,,---,0.00,VWS V14.00,2013-01-15 01:03:00,
2013-01-14 17:08:00,52.0,9.8,31.01,ENE,58,2.2,8.3,18,0.00,,---,0.00,VWS V14.00,2013-01-15 01:08:00,
2013-01-14 17:13:00,51.8,9.7,31.01,North,0,3.1,8.3,18,0.00,,---,0.00,VWS V14.00,2013-01-15 01:13:00,
2013-01-14 17:18:00,51.6,10.7,31.01,North,3,4.9,8.3,19,0.00,,---,0.00,VWS V14.00,2013-01-15 01:18:00,
2013-01-14 17:23:00,51.6,10.7,31.01,North,6,6.3,6.3,19,0.00,,---,0.00,VWS V14.00,2013-01-15 01:23:00,
2013-01-14 17:28:00,51.4,10.6,31.01,NE,50,4.0,6.3,19,0.00,,---,0.00,VWS V14.00,2013-01-15 01:28:00,
2013-01-14 17:33:00,51.4,10.6,31.01,North,6,2.7,6.3,19,0.00,,---,0.00,VWS V14.00,2013-01-15 01:33:00,
2013-01-14 17:38:00,51.1,10.3,31.01,NNE,22,0.0,6.3,19,0.00,,---,0.00,VWS V14.00,2013-01-15 01:38:00,
2013-01-14 17:43:00,51.1,10.3,31.01,NE,50,0.0,6.7,19,0.00,,---,0.00,VWS V14.00,2013-01-15 01:43:00,
2013-01-14 17:48:00,50.9,10.1,31.01,NNE,33,2.2,6.7,19,0.00,,---,0.00,VWS V14.00,2013-01-15 01:48:00,
2013-01-14 17:53:00,50.7,10.0,31.01,NNE,29,4.9,6.7,19,0.00,,---,0.00,VWS V14.00,2013-01-15 01:53:00,
2013-01-14 17:58:00,50.5,9.8,31.01,NE,46,2.7,6.7,19,0.00,,---,0.00,VWS V14.00,2013-01-15 01:58:00,
2013-01-14 18:03:00,50.5,9.8,31.01,ENE,78,3.6,6.7,19,0.00,,---,0.00,VWS V14.00,2013-01-15 02:03:00,
2013-01-14 18:08:00,50.7,10.0,31.01,ESE,117,5.4,8.7,19,0.00,,---,0.00,VWS V14.00,2013-01-15 02:08:00,
2013-01-14 18:13:00,50.7,10.0,31.01,NE,56,4.0,10.1,19,0.00,,---,0.00,VWS V14.00,2013-01-15 02:13:00,
2013-01-14 18:18:00,50.9,10.1,31.01,NE,37,5.4,13.2,19,0.00,,---,0.00,VWS V14.00,2013-01-15 02:18:00,
2013-01-14 18:23:00,50.9,10.1,31.01,ENE,75,10.5,10.5,19,0.00,,---,0.00,VWS V14.00,2013-01-15 02:23:00,
2013-01-14 18:28:00,50.9,10.1,31.01,North,357,7.6,10.5,19,0.00,,---,0.00,VWS V14.00,2013-01-15 02:28:00,
2013-01-14 18:33:00,50.7,10.0,31.01,NE,34,0.0,10.5,19,0.00,,---,0.00,VWS V14.00,2013-01-15 02:33:00,
2013-01-14 18:38:00,50.5,9.8,31.01,ENE,58,3.6,10.5,19,0.00,,---,0.00,VWS V14.00,2013-01-15 02:38:00,
2013-01-14 18:43:00,50.5,9.8,31.01,NE,39,0.0,8.3,19,0.00,,---,0.00,VWS V14.00,2013-01-15 02:43:00,
2013-01-14 18:48:00,50.4,9.7,31.01,North,0,6.3,8.3,19,0.00,,---,0.00,VWS V14.00,2013-01-15 02:48:00,
2013-01-14 18:53:00,50.4,9.7,31.01,NE,37,4.9,8.3,19,0.00,,---,0.00,VWS V14.00,2013-01-15 02:53:00,
2013-01-14 18:58:00,50.5,9.8,31.01,NNW,328,0.0,8.7,19,0.00,,---,0.00,VWS V14.00,2013-01-15 02:58:00,
2013-01-14 19:03:00,50.5,9.8,31.01,NE,52,0.0,12.3,19,0.00,,---,0.00,VWS V14.00,2013-01-15 03:03:00,
2013-01-14 19:08:00,50.4,9.7,31.01,NNE,31,4.9,12.3,19,0.00,,---,0.00,VWS V14.00,2013-01-15 03:08:00,
2013-01-14 19:13:00,50.2,9.5,31.01,ENE,73,3.6,12.3,19,0.00,,---,0.00,VWS V14.00,2013-01-15 03:13:00,
2013-01-14 19:18:00,50.2,9.5,31.01,North,3,0.0,12.3,19,0.00,,---,0.00,VWS V14.00,2013-01-15 03:18:00,
2013-01-14 19:23:00,50.0,9.4,31.01,North,8,5.8,8.1,19,0.00,,---,0.00,VWS V14.00,2013-01-15 03:23:00,
2013-01-14 19:28:00,50.0,9.4,31.01,NNW,334,4.9,8.3,19,0.00,,---,0.00,VWS V14.00,2013-01-15 03:28:00,
2013-01-14 19:33:00,49.8,9.2,31.01,NW,305,3.1,8.3,19,0.00,,---,0.00,VWS V14.00,2013-01-15 03:33:00,
2013-01-14 19:38:00,49.8,9.2,31.01,North,8,2.7,8.3,19,0.00,,---,0.00,VWS V14.00,2013-01-15 03:38:00,
2013-01-14 19:43:00,50.0,9.4,31.01,North,357,5.4,8.7,19,0.00,,---,0.00,VWS V14.00,2013-01-15 03:43:00,
2013-01-14 19:48:00,49.6,9.1,31.01,NNE,24,5.8,8.7,19,0.00,,---,0.00,VWS V14.00,2013-01-15 03:48:00,
2013-01-14 19:53:00,49.8,9.2,31.01,East,87,5.4,9.6,19,0.00,,---,0.00,VWS V14.00,2013-01-15 03:53:00,
2013-01-14 19:59:00,50.0,9.4,31.01,NNE,14,5.4,10.1,19,0.00,,---,0.00,VWS V14.00,2013-01-15 03:59:00,
2013-01-14 20:04:00,50.4,9.7,31.01,NE,44,4.9,10.5,19,0.00,,---,0.00,VWS V14.00,2013-01-15 04:04:00,
2013-01-14 20:09:00,50.5,9.8,31.01,NE,54,6.3,11.0,19,0.00,,---,0.00,VWS V14.00,2013-01-15 04:09:00,
2013-01-14 20:14:00,50.7,10.0,31.01,NE,56,4.9,12.8,19,0.00,,---,0.00,VWS V14.00,2013-01-15 04:14:00,
2013-01-14 20:19:00,50.5,9.8,31.01,South,171,3.1,12.8,19,0.00,,---,0.00,VWS V14.00,2013-01-15 04:19:00,
2013-01-14 20:24:00,50.5,9.8,31.01,East,80,6.3,8.7,19,0.00,,---,0.00,VWS V14.00,2013-01-15 04:24:00,
2013-01-14 20:29:00,50.5,9.8,31.01,East,86,3.1,10.5,19,0.00,,---,0.00,VWS V14.00,2013-01-15 04:29:00,
2013-01-14 20:34:00,50.5,9.8,31.01,ESE,120,6.3,10.5,19,0.00,,---,0.00,VWS V14.00,2013-01-15 04:34:00,
2013-01-14 20:39:00,50.5,9.8,31.01,East,83,5.4,10.5,19,0.00,,---,0.00,VWS V14.00,2013-01-15 04:39:00,
2013-01-14 20:44:00,50.4,9.7,31.01,East,89,4.0,7.6,19,0.00,,---,0.00,VWS V14.00,2013-01-15 04:44:00,
2013-01-14 20:49:00,50.4,9.7,31.01,ESE,114,5.4,11.0,19,0.00,,---,0.00,VWS V14.00,2013-01-15 04:49:00,
2013-01-14 20:54:00,50.4,9.7,31.01,East,79,5.4,13.2,19,0.00,,---,0.00,VWS V14.00,2013-01-15 04:54:00,
2013-01-14 20:59:00,50.4,9.7,31.01,East,79,4.9,13.2,19,0.00,,---,0.00,VWS V14.00,2013-01-15 04:59:00,
2013-01-14 21:00:00,50.4,9.7,31.01,NE,47,2.7,13.2,19,0.00,,---,0.00,VWS V14.00,2013-01-15 05:00:00,
2013-01-14 21:01:00,50.4,9.7,31.01,ESE,117,3.6,6.7,19,0.00,,---,0.00,VWS V14.00,2013-01-15 05:01:00,
2013-01-14 21:02:00,50.4,9.7,31.01,ESE,107,5.8,6.7,19,0.00,,---,0.00,VWS V14.00,2013-01-15 05:02:00,
2013-01-14 21:06:00,50.2,9.5,31.01,ENE,70,5.4,7.6,19,0.00,,---,0.00,VWS V14.00,2013-01-15 05:06:00,
2013-01-14 21:11:00,50.2,9.5,31.01,East,90,0.0,8.3,19,0.00,,---,0.00,VWS V14.00,2013-01-15 05:11:00,
2013-01-14 21:16:00,50.0,9.4,31.01,SSE,160,0.0,8.3,19,0.00,,---,0.00,VWS V14.00,2013-01-15 05:16:00,
2013-01-14 21:21:00,50.0,9.4,31.01,NNE,18,2.7,4.0,19,0.00,,---,0.00,VWS V14.00,2013-01-15 05:21:00,
2013-01-14 21:26:00,50.2,9.5,31.01,ESE,115,4.9,8.7,19,0.00,,---,0.00,VWS V14.00,2013-01-15 05:26:00,
2013-01-14 21:31:00,50.2,9.5,31.01,NNE,33,11.4,11.4,19,0.00,,---,0.00,VWS V14.00,2013-01-15 05:31:00,
2013-01-14 21:36:00,50.5,9.8,31.01,ESE,121,4.9,11.4,19,0.00,,---,0.00,VWS V14.00,2013-01-15 05:36:00,
2013-01-14 21:41:00,50.5,9.8,31.01,ENE,70,9.2,12.8,19,0.00,,---,0.00,VWS V14.00,2013-01-15 05:41:00,
2013-01-14 21:46:00,50.5,9.8,31.01,ENE,69,5.4,12.8,19,0.00,,---,0.00,VWS V14.00,2013-01-15 05:46:00,
2013-01-14 21:51:00,50.4,9.7,31.01,NE,56,0.0,12.8,19,0.00,,---,0.00,VWS V14.00,2013-01-15 05:51:00,
2013-01-14 21:56:00,50.2,9.5,31.01,ENE,70,5.4,12.8,19,0.00,,---,0.00,VWS V14.00,2013-01-15 05:56:00,
2013-01-14 22:01:00,50.0,9.4,31.01,ENE,73,0.0,2.7,19,0.00,,---,0.00,VWS V14.00,2013-01-15 06:01:00,
2013-01-14 22:06:00,49.8,9.2,31.01,ENE,59,3.1,6.3,19,0.00,,---,0.00,VWS V14.00,2013-01-15 06:06:00,
2013-01-14 22:11:00,50.0,9.4,31.01,ENE,64,5.8,8.3,19,0.00,,---,0.00,VWS V14.00,2013-01-15 06:11:00,
2013-01-14 22:16:00,50.0,9.4,31.01,ENE,73,3.6,8.3,19,0.00,,---,0.00,VWS V14.00,2013-01-15 06:16:00,
2013-01-14 22:21:00,50.0,9.4,31.01,ESE,110,2.7,2.7,19,0.00,,---,0.00,VWS V14.00,2013-01-15 06:21:00,
2013-01-14 22:26:00,49.8,9.2,31.01,ESE,112,3.6,3.6,19,0.00,,---,0.00,VWS V14.00,2013-01-15 06:26:00,
2013-01-14 22:31:00,49.5,8.9,31.01,ESE,112,5.4,5.8,19,0.00,,---,0.00,VWS V14.00,2013-01-15 06:31:00,
2013-01-14 22:36:00,49.8,9.2,31.01,East,87,4.0,8.7,19,0.00,,---,0.00,VWS V14.00,2013-01-15 06:36:00,
2013-01-14 22:41:00,50.0,9.4,31.01,East,79,0.0,7.2,19,0.00,,---,0.00,VWS V14.00,2013-01-15 06:41:00,
2013-01-14 22:46:00,50.2,9.5,31.01,ESE,116,0.0,7.2,19,0.00,,---,0.00,VWS V14.00,2013-01-15 06:46:00,
2013-01-14 22:51:00,50.0,9.4,31.01,East,83,4.9,7.2,19,0.00,,---,0.00,VWS V14.00,2013-01-15 06:51:00,
2013-01-14 22:56:00,50.2,9.5,31.01,ENE,75,4.0,7.2,19,0.00,,---,0.00,VWS V14.00,2013-01-15 06:56:00,
2013-01-14 23:01:00,50.2,9.5,31.01,SE,129,0.0,4.0,19,0.00,,---,0.00,VWS V14.00,2013-01-15 07:01:00,
2013-01-14 23:06:00,49.8,9.2,31.01,NE,48,3.6,8.3,19,0.00,,---,0.00,VWS V14.00,2013-01-15 07:06:00,
2013-01-14 23:12:00,49.6,9.1,31.01,SE,129,0.0,8.3,19,0.00,,---,0.00,VWS V14.00,2013-01-15 07:12:00,
2013-01-14 23:17:00,49.8,9.2,31.01,East,84,3.6,8.3,19,0.00,,---,0.00,VWS V14.00,2013-01-15 07:17:00,
2013-01-14 23:22:00,49.6,9.1,31.01,East,84,0.0,4.0,19,0.00,,---,0.00,VWS V14.00,2013-01-15 07:22:00,
2013-01-14 23:27:00,49.5,8.9,31.01,East,92,2.2,5.8,19,0.00,,---,0.00,VWS V14.00,2013-01-15 07:27:00,
2013-01-14 23:32:00,49.5,8.9,31.01,ENE,77,3.1,5.8,19,0.00,,---,0.00,VWS V14.00,2013-01-15 07:32:00,
2013-01-14 23:37:00,49.3,8.8,31.01,ENE,63,0.0,5.8,19,0.00,,---,0.00,VWS V14.00,2013-01-15 07:37:00,
2013-01-14 23:42:00,49.3,8.8,31.01,NE,38,0.0,3.1,19,0.00,,---,0.00,VWS V14.00,2013-01-15 07:42:00,
2013-01-14 23:47:00,48.9,8.5,31.01,NE,38,0.0,3.1,19,0.00,,---,0.00,VWS V14.00,2013-01-15 07:47:00,
2013-01-14 23:52:00,48.6,8.2,31.01,NE,38,0.0,3.1,19,0.00,,---,0.00,VWS V14.00,2013-01-15 07:52:00,
2013-01-14 23:57:00,48.2,7.9,31.01,NE,38,0.0,3.1,19,0.00,,---,0.00,VWS V14.00,2013-01-15 07:57:00,